[Date Prev][Date Next][Thread Prev][Thread Next][Date Index][Thread Index]

[jamsat-news:1588] jas2info #243



========================   最新情報   ==============================

        Last updated :22SEP2001  13:40(JST)   #243

==================================================================
   
  1)アマチュア通信衛星情報、FOシリーズの軌道要素、テレメトリ、QSOの
   状況等をまとめてみました.
   
   FO−29の2001年9月22日(土)の9:31(JST)のパスでは
  JARLのホームページのとうりアナログ運用でした。 今日までの観測した
  テレメトリーと最終の分析結果を掲載しておきます.

AS25174C   22SEP2001
9:31-9:37(JST)
FREQ. 435.797-.790MHz

HI HI AE C7 88 55 00 D4 81 AD 09 42 6E 3A 7D 63 9D 98 B0 79 99 91 90 97 91
HI HI AE C7 88 55 00 D4 81 AD 09 42 85 36 79 63 9D 98 B0 78 99 90 90 97 91 
HI HI AE C7 88 55 00 D4 81 AD 09 42 88 33 73 63 7D 97 B0 78 99 90 90 96 91  
HI HI AE C7 88 55 00 D4 81 AD 09 42 86 2C 7D 63 9D 98 B0 76 99 90 8F 96 91 
HI HI AE C7 88 55 00 D4 81 AD 09 42 89 2E 77 63 9D 98 B0 68 99 90 90 96 91 
HI HI AE C7 88 55 00 D4 81 AD 09 42 8A 31 71 63 9D 98 B0 68 99 90 90 96 91 
HI HI AE C7 88 55 00 D4 81 AD 09 42 8A 36 68 63 9D 98 B0 76 99 90 8F 96 91 
HI HI AE C7 88 55 00 D4 81 AD 09 42 88 3E 63 63 9D 98 B0 8D 99 90 8F 96 91 
HI HI AE C7 88 55 00 D4 81 AD 09 42 86 47 6B 63 9D 98 B0 76 99 90 8F 96 91

AS25167C   21SEP2001
19:46-20:00(JST)
FREQ.435.804-.786MHz
                                                9B 97 B0 79 91 89 96 98 90
HI HI AE C7 88 55 00 D4 84 B8 09 5B A5 82 54 63 9B 97 B0 74 91 89 96 98 8F 
HI HI AE C7 88 55 00 D4 84 B8 09 5B 98 82 57 63 9B 97 B0 8E 90 89 96 98 8F 
HI HI AE C7 88 55 00 D4 84 B8 09 5B 8A 7C 59 63 9C 97 B0 85 91 89 96 98 8F 
HI HI AE C7 88 55 00 D4 84 B8 09 5B 7D 72 5C 63 9C 97 B0 7B 90 89 96 98 8F 
HI HI AE C7 88 55 00 D4 84 B8 09 5B 72 64 5E 63 9C 97 B0 60 91 89 96 98 8F 
HI HI AE C7 88 55 00 D4 84 B8 09 5B 6A 55 5E 63 9C 98 B0 83 90 89 96 98 8F 
HI HI AE C7 88 55 00 D4 84 B8 09 5B 66 46 61 63 9C 97 B0 7B 90 89 96 98 8F 
HI HI AE C7 88 55 00 D4 84 B8 09 5B 66 39 60 63 9C 98 B0 92 90 89 96 98 8F 
HI HI AE C7 88 55 00 D4 84 B8 09 5B 6B       63 9C 98 B0 5D 90 89 96 98 8F 
HI HI AE C7 88 55 00 D4 84 B8 09 5B 73 2C 2C 74 97 93 9A 83 90 89 96 98 8F 
HI HI AE C7 88 55 00 D4 84 B8 09 5B 7D 2E  F 81 90 8E 94 6C 90 89 96 98 8F 
HI HI AE C7 88 55 00 D4 84 B8 09 5B 75 5B 88 84 8D 8B 91 87 90 89 96 98 8F 
HI HI AE C7 88 55 00 D4 84 B8 09 5B 91 44 90 86 9O 8A 8F 7C 90 89 96 98 8F 
HI HI AE C7 88 55 00 D4 84 B8 09 5B 98 55 00 88 8B 88 8B 7C 90 89 96 98 8E
HI HI AE C7 88 55 00 D4 84 B8 09 5B 9C 65 00 87 8A 89 90 6F 90 8A 95 98 8F 
HI HI AE C7 88 55 00 D4 84 B8 09 5B 5A 75 01 87 8A 89 95 9F 90 8A 95 98 8F 
HI HI AE C7 88 55 00 D4 84 B8 09 5B 94 82 2C 7F 8B 89 95 59 90 8A 96 98 8F 
HI HI AE 07 88 55 00 D4 84 B8 09 5B 8A 8B 2D 72 8C 8A 97 88 90 8A 96 98 8F 

AS25153C1  20SEP2001
18:57-19:05(JST)
FREQ.435.801-.788MHz

HI HI AE C7 88 55 00 D4 6E 76 09 56 65 23 5D 63 9C 98 B0 83 97 8B 91 9A 92 
HI HI AE C7 88 55 00 D4 6E 76 09 56 71 24 60 63 9C 98 B0 8C 97 8B 91 9A 91 
HI HI AE C7 88 55 00 D4 6E 76 09 56 7D 29 61 63 9C 98 B0 56 97 8B 92 9A 91 
HI HI AE C7 88 55 00 D4 6E 76 09 56 88 31 63 63 9C 98 B0 66 97 8B 92 9A 91 
HI HI AE C7 88 55 00 D4 6E 76 09 56 91 3C 61 63 9C 98 B0 6C 97 8B 92 9A 91 
HI HI AE C7 88 55 00 D4 6E 76 09 56 97 49 60 63 9C 99 B0 6A 97 8B 92 9A 91 
HI HI AE C7 88 55 00 D4 6E 76 09 56 9B 57 53 63 9C 98 B0 79 96 8A 92 9A 91 
HI HI AE C7 88 55 00 D4 6E 76 09 56 9C 64 26 75 96 93 99 7F 96 8B 92 9A 91 
HI HI AE C7 88 55 00 D4 6E 76 09 56 9A 72 0D 81 90 89 93 7A 96 8A 92 9A 91 
HI HI AE C7 88 55 00 D4 6E 76 09 56 95 7E 04 88 8D 8B 91 85 96 8A 92 9A 91
HI HI AE C7 88 55 00 D4 6E 76 09 56 7E 89  

AS25417C  20SEP2001
9:31-9:41(JST)
FREQ.435.800-.791MHz

HI HI AE C7 88 55 00 D4 84 69 09 27 68 7A 5C 63 9D 98 B0 64 94 97 96 90 91
HI HI AE C7 88 55 00 D4 84 69 09 27 61 7F    63 9D 98 B0 67 94 97 96 90 91 
HI HI AE C7 88 55 00 D4 84 69 09 27 5B 83 60 63 9D 98 B0 78 94 97 96 90 91
HI HI AE C7 88 55 00 D4 84 69 08 27 55 88 62 63 9D 88 B0 79 94 96 96 91 91
HI HI AE C7 88 55 00 D4 84 69 08 27 4F 8C 63 63 9D 88 B0 54 94 96 96 91 91 
HI HI AE C7 88 55 00 D4 84 69 09 37 4B 8F 60 63 9D 98 B0 73 94 96 96 91 91
HI HI AE C7 88 55 00 D4 84 69 09 27 46 93 5E 63 9D 98 B0 65 94 96 96 91 91 
HI HI AE C7 88 55 00 D4 84 69 09 27 42 95 5D 63 9C 98 B0 8E 94 96 96 91 91 
HI HI AE C7 88 55 00 D4 84 69 09 27 3F 96 5B 63 9D 98 B0 77 94 96 96 91 91 
HI HI AE C7 88 55 00 D4 84 69 07 27 3A 98 5C 63 9C 98 B0 75 94 96 96 91 91 
HI HI AE C7 88 55 00 D4 84 69 09 27 37 98 5A 63 9D 98 B0 71 94 96 96 91 91
HI HI AE C7 88 55 00 D4 84 69 09 27 33 97 57 63 9D 98 AF 6D 94 96 96 91 91  
HI HI AE C7 88 55 00 D4 84 69 09 27 2F 95 53 63 9D 98 B0 

AS25140C1    19SEP2001
19:50-20:04(JST)
FREQ.435.805-.786MHz
                                                      A0 75 90 8D 91 93 8D 
HI HI AE C7 88 55 00 D4 2A B6 09 7D 31 3C 47 65 92 8F A3 6B 90 8D 92 92 8D 
HI HI AE C7 88 55 00 D4 2A B6 09 7D 33 38 49 64 92 8F A4 86 90 8D 91 9J 8D 
HI HI AE C7 88 55 00 D4 2A B6 09 7D 35 36 4B 63 92 8F A5 7E 90 8D 91 92 8D 
HI HI AE C7 88 55 00 D4 2A B6 09 7D 39 34 4A 63 92 8F A6 7F 90 8D 91 82 8D 
HI HI AE C7 88 55 00 D4 2A B6 09 7D 3C 32 4A 64 92 8F A6 67 90 8D 91 92 8D 
HI HI AE C7 88 55 00 D4 2A B6 09 7D 40 30 4B 63 92 8F A6 82 91 8D 91 92 8D 
HI HI AE C7 88 55 00 D4 2A B6 09 7D 44 2F 4B 63 92 8F A6 66 90 8D 91 92 8D 
HI HI AE C7 88 55 00 D4 2A B6 09 7D 48 2F 4B 63 93 8F A7 70 91 8D 91 92 8D 
HI HI AE C7 88 55 00 D4 2A B6 09 7D 4C 2E 4A B3 93 8F A5 79 91 8D 91 92 8D 
HI HI AE C7 88 55 00 D4 68 59 09 45 5O 2F 3E B3 92 8F A7 72 91 8D 91 92 8D 
HI HI AE C7 88 55 00 D4 2A B6 6O 45 54 2F 31 63 92 8F A7 6E 91 8D 91 92 8D 
HI HI AE C7 88 55 00 D4       09 45 58 30 31 63 8C 8A A6 6E 91 8D 91 92 8D  
HI HI AE C7 88 55 00 DE 2A 68 09 45 5C 32 04 88 8B 8A 8F 6C 91 8D 91 92 8D 
HI HI AE C7 88 55 00 D4 2A B6 09 45 60 34          89 8F 6B 91 8D 91 92 8D 
HI HI AE 07 88 55 00 D4     9 09 45 60 48             8A 6A 91 8D 91 92 8D 
HI HI AE C7 88 55 00 D4 2A AE 09 45 65 44    89 8A 89 95 52 91 8D 91 92 8D 
HI HI AE C7 88 55 00 D4 68 59 09 45 69 41 01 87 8A 89 95 74 91 8D 91 92 8D 
HI HI AE 07 88 55 00 D4 68 59 09 45 6B 46 0F 80 8A 86 95 68 91 8D 91 92 8D

------------------------ FO-29の軌道要素 ------------------------------        
 
  ■ 軌道要素1:「jamsat−keps:1032」より         
          SB KEPS @ AMSAT  $ORB01250.N
          2Line Orbital Elements 01250.AMSAT

HR AMSAT ORBITAL ELEMENTS FOR AMATEUR SATELLITES IN NASA FORMAT
FROM WA5QGD FORT WORTH,TX September 7, 2001
SEND SUBSCRIBE/UNSUBSCRIBE TO majordomo@amsat.org ONLY
BID: ORB01250.N

 DECODE 2-LINE ELSETS WITH THE FOLLOWING KEY:
 1 AAAAAU 00  0  0 BBBBB.BBBBBBBB  .CCCCCCCC  00000-0  00000-0 0  DDDZ
 2 AAAAA EEE.EEEE FFF.FFFF GGGGGGG HHH.HHHH III.IIII JJ.JJJJJJJJKKKKKZ
 KEY: A-CATALOGNUM B-EPOCHTIME C-DECAY D-ELSETNUM E-INCLINATION F-RAAN
 G-ECCENTRICITY H-ARGPERIGEE I-MNANOM J-MNMOTION K-ORBITNUM Z-CHECKSUM

FO-29
1 24278U 96046B   01248.67012234  .00000004  00000-0  38232-4 0 04438
2 24278 098.5316 102.9242 0351052 153.1482 208.8314 13.52779436249522

 ■ 軌道要素2:「jamsat−keps:1031」より
        SB KEPS @ AMSAT  $ORB01250.O
        Orbital Elements  01250.OSCAR

HR AMSAT ORBITAL ELEMENTS FOR OSCAR SATELLITES
FROM WA5QGD FORT WORTH,TX September 7, 2001
SEND SUBSCRIBE/UNSUBSCRIBE TO majordomo@amsat.org ONLY
BID: ORB01250.O
TO ALL RADIO AMATEURS BT
 
Satellite: FO-29
Catalog number: 24278
Epoch time:      01248.67012234
Element set:    0443
Inclination:      098.5316 deg
RA of node:       102.9242 deg
Eccentricity:    0.0351052
Arg of perigee:   153.1482 deg
Mean anomaly:     208.8314 deg
Mean motion:   13.52779436 rev/day
Decay rate:        4.0e-08 rev/day^2
Epoch rev:           24952
Checksum:              288

-------------------  FO-29(JAS-2)のテレメトリに関する情報  ---------------------- 
 
2)上記9月22日(土)のテレメトリの最終行を分析しておきます.

AS25174C   22SEP2001
9:31-9:37(JST)
FREQ. 435.797-.790MHz

HI HI AE C7 88 55 00 D4 81 AD 09 42 86 47 6B 63 9D 98 B0 76 99 90 8F 96 91

テレメトリ   内 容         換算算値 単 位
3C	磁気センサーZ軸=	65686.3	[nT]
3D	磁気センサX軸	=	34803.9	[nT]
4A	太陽電池発生電流=	 1049.0	[mA]
4B	B充放電電流	=	  -59.6	[mA]
4C	B端子電圧	= 	   16.9	[V]
4D	B中間端子電圧	=	    7.3	[V]
5A	バス電圧	=	   17.3	[V]
5B	JTA送信電力	=	  668.9	[mW]
5C 	構体温度1	=	   22.5	[℃]
5D	構体温度2	=	   26.0	[℃]
6A	構体温度3	=	   26.3	[℃]
6B	構体温度4	=	   23.6	[℃]
6C	Bセル温度	=	   25.6	[℃]

 ========================== FO-29(ふじ3号)のQSO情報等 ======================
   
 3)[jamsat-bb:

 ===============================================================================
   4)JARL のホームページに運用予定が記載されていましたのでご紹介します.
       ( http://www.jarl.or.jp/Japanese/3_Fuji/new/uy.htm )

        ■ ふじ3号/FOー29/JAS-2 ■  
   
     *** 運用予定について ***

 7月2日(月) 〜 10月1日(月)アナログ系運用 


  *なお,運用予定は都合により変更することがありますので予めご了承願います。

 照会先 : lab@jarl.or.jp

 最新の情報はテレホンサービス(03−3942−1000)をお聞きください。  
 以後の運用につきましては平成13年10月上旬にお知らせ致します。
    
-----------------------    FO−20(JAS-1b)道要素   -------------------------
  5)
  ■ 軌道要素1 :出典はFO-29「ふじ3号」に同じ.
  
FO-20
1 20480U 90013C   01250.65657922  .00000011  00000-0  89059-4 0  3392
2 20480  99.0523 303.6413 0540659 122.4094 243.0493 12.83296964542674
 
  ■ 軌道要素2 :出典はFO−29「ふじ3号」に同じ.
               
Satellite: FO-20
Catalog number: 20480
Epoch time:      01250.65657922
Element set:     339
Inclination:       99.0523 deg
RA of node:       303.6413 deg
Eccentricity:    0.0540659
Arg of perigee:   122.4094 deg
Mean anomaly:     243.0493 deg
Mean motion:   12.83296964 rev/day
Decay rate:        1.1e-07 rev/day^2
Epoch rev:           54267
Checksum:              292

 --------------------------------------------------------------------------------
 
         ■ ふじ2号/FO−20/JAS-1b ■      
            
          「ふじ2号」 現況                                                                                  
             
   JAS-1b(ふじ2号)のCWテレメトリ信号に,1997年10月12日12時(JST)の
 日本上空通過時,3桁の数字が繰り返されるはずが3個の長音の繰り返しとなっているという
 異常が発見されました。この不具合は次の通過時からは回復していましたが13日15時20分の
 通過時に再び観測されました。現在はA0の送信が続いています。衛星のアナログ系中継モード
 動作は異常が無く,正常時のテレメトリ内容からは衛星の動作に異常は認められません。従って,
 直ちに衛星のミッションに影響することは無いと予想されますので,当面はアナログ系中継
 モードを継続します。衛星は既に打ち上げてから7年8ヶ月を経ておりますので,今後は監視を
 強化する予定です。アマチュア各位のレポートをお待ちします。
 -------------------------------------------------------------------------------- 
  1997年10月14日 00時35分 確認のテレメトリ音 151 KB (A0) 
  1997年10月14日 11時10分 確認のテレメトリ音 216 KB (異常キーイング) 

  以上 JARLのホ−ムページの http://www.jarl.or.jp/Japanese/3_Fuji/new/fuji.htm

===================== FO-20 ふじ2号 のテレメトリ観測結果 ====================

  7月19日(木)19:45(JST)の観測結果では以前観測した単一周波数の
ドップラー効果で周波数がずれていくのみの状態でした。
                                         
   =============   JAS-2 (ふじ3号)と現在までの情報   ===========
  
  A.電話によるふじ3号の運用情報
      社団法人日本アマチュア連盟によるサービス
           TEL .   03− 3942 − 1000
  B.アマチュア無線FAXサービス
      JARLによるふじ3号の軌道情報(オービットカレンダー)
         FAX No.  03− 3233 −0055
  C.WWWブラウザで情報を簡単に見れる人のためにJAS−2
     ふじ3号の衛星としての運用されるまでの名前)の概要、打ち上げ
     までの状況、運用中における状況を説明したホームページを紹介し
     ておきます.
     社団法人日本アマチュア無線連盟(JARL)のホームページ

          http://www.jarl.or.jp/Japanese/3_Fuji/jasmenu.htm
 
     宇宙開発事業団(NASDA)ホームページ 
          http://www.nasda.go.jp/
         打上げ衛星 :地球観測プラットフォーム技術衛星(ADEOS) 
                       アマチュア衛星3号(JAS-2)
          http://spaceboy.nasda.go.jp/note/eisei/j/Eis15h_j.html#Eis15h_01_j
     http://spaceboy.nasda.go.jp/note/eisei/j/Eis15i_j.html        

  D.JAMSATによる軌道情報の活用
        JAMSATのホームページまたはjamsat−kepsの軌道要素より
      衛星の軌道情報を得る.
     JAMSATホームページ
               URL    http://www.jamsat.or.jp
       上記ホームページでは各地で行われるアマチュア通信衛星に関する
      ミューティングのお知らせや世界のアマチュア衛星に関する情報が
      満載されています.
 ========================================================================  
     JAMSATのメンバーのご協力によりJH6MME(高山 秀造)が
    執筆・編集を担当しております.ご指摘の意見、疑問やこのようにしたら
    というアイデアがありましたら小さなことでもかまいませんので気軽に下
    記アドレスまでご連絡ください.jamsat−newsからjas2
    infoへの転載をJH4PHW局坂井さんに担当して頂いております.  
                  E-mail : jh6mme@jamsat.or.jp : jh4phw@jamsat.or.jp
 ===============================   END  ===============================